Nenana, AK

1:10 PM AKDT on August 17, 2019 (GMT -0800)
Nenana Municipal

Weather History for PANN - July, 2019

Change the Weather History Date:

Saturday, July 20, 2019

  Actual Average Record
Temperature  
Mean Temperature 61 °F -  
Max Temperature 71 °F 71 °F 85 °F (1990)
Min Temperature 53 °F 50 °F 1 °F (2012)
Degree Days  
Heating Degree Days 4    
Growing Degree Days 11 (Base 50)    
Moisture  
Dew Point 53 °F    
Average Humidity 69    
Maximum Humidity 91    
Minimum Humidity 44    
Precipitation  
Precipitation 0.00 in - - ()
Sea Level Pressure  
Sea Level Pressure 30.05 in    
Wind  
Wind Speed 4 mph (SW)    
Max Wind Speed 10 mph    
Max Gust Speed 23 mph    
Visibility 10 miles    
Events      
Averages and records for this station are not official NWS values.
T = Trace of Precipitation, MM = Missing Value Source: NWS Daily Summary

Daily Weather History Graph

Daily Weather History Graph

Search for Another Location

Airport or City:

Astronomy

Jul. 20, 2019 Rise Set
Actual Time 4:18 AM AKDT 11:43 PM AKDT
Civil Twilight 2:35 AM AKDT 1:30 AM AKDT
Nautical Twilight Sun does not set Sun does not set
Astronomical Twilight Sun does not set Sun does not set
Moon 12:39 AM AKDT (7/20) 9:10 AM AKDT (7/20)
Length of Visible Light 22h 55m
Length of Day
19h 24m
Waning Gibbous, 86% of the Moon is Illuminated
Jul 20
Waning Gibbous
Jul 24
Last Quarter
Jul 31
New
Aug 7
First Quarter
Aug 15
Full

Hourly Weather History & Observations

Time (AKDT) Temp. Dew Point Humidity Pressure Visibility Wind Dir Wind Speed Gust Speed Precip Events Conditions
12:53 AM 61.0 °F 52.0 °F 72% 30.00 in 10.0 mi WSW 3.5 mph - N/A   Partly Cloudy
1:53 AM 55.9 °F 52.0 °F 87% 30.01 in 10.0 mi Calm Calm - N/A   Mostly Cloudy
2:53 AM 55.0 °F 52.0 °F 89% 30.01 in 10.0 mi SE 3.5 mph - N/A   Overcast
3:53 AM 55.0 °F 52.0 °F 89% 30.01 in 10.0 mi Calm Calm - N/A   Overcast
4:53 AM 55.0 °F 52.0 °F 89% 30.02 in 10.0 mi Calm Calm - N/A   Overcast
5:53 AM 57.0 °F 53.1 °F 87% 30.02 in 10.0 mi Calm Calm - N/A   Overcast
6:53 AM 59.0 °F 54.0 °F 83% 30.02 in 10.0 mi Calm Calm - N/A   Overcast
7:53 AM 60.1 °F 55.0 °F 83% 30.02 in 10.0 mi Calm Calm - N/A   Scattered Clouds
8:53 AM 64.9 °F 54.0 °F 68% 30.02 in 10.0 mi Variable 3.5 mph - N/A   Mostly Cloudy
9:53 AM 64.0 °F 54.0 °F 70% 30.02 in 10.0 mi SW 4.6 mph - N/A   Overcast
10:53 AM 64.9 °F 54.0 °F 68% 30.02 in 10.0 mi Variable 5.8 mph - N/A   Overcast
11:53 AM 66.9 °F 54.0 °F 63% 30.02 in 10.0 mi Variable 6.9 mph - N/A   Overcast
12:53 PM 66.9 °F 54.0 °F 63% 30.02 in 9.0 mi Variable 5.8 mph - N/A   Overcast
1:53 PM 68.0 °F 53.1 °F 59% 30.02 in 10.0 mi WSW 8.1 mph 17.3 mph N/A   Overcast
2:53 PM 69.1 °F 53.1 °F 57% 30.03 in 9.0 mi Variable 5.8 mph - N/A   Overcast
3:53 PM 69.1 °F 52.0 °F 54% 30.03 in 7.0 mi SW 10.4 mph 23.0 mph N/A   Mostly Cloudy
4:53 PM 66.9 °F 51.1 °F 57% 30.04 in 7.0 mi WSW 8.1 mph - N/A   Overcast
5:53 PM 68.0 °F 51.1 °F 55% 30.04 in 8.0 mi WSW 9.2 mph 18.4 mph N/A   Overcast
6:53 PM 66.9 °F 51.1 °F 57% 30.05 in 10.0 mi WSW 8.1 mph - N/A   Overcast
7:53 PM 66.9 °F 51.1 °F 57% 30.05 in 10.0 mi WSW 9.2 mph - N/A   Overcast
8:53 PM 64.9 °F 51.1 °F 61% 30.06 in 10.0 mi WSW 8.1 mph - N/A   Mostly Cloudy
9:53 PM 64.9 °F 52.0 °F 63% 30.06 in 10.0 mi Variable 4.6 mph - N/A   Mostly Cloudy
10:53 PM 64.0 °F 52.0 °F 65% 30.07 in 10.0 mi Variable 4.6 mph - N/A   Mostly Cloudy
11:53 PM 63.0 °F 52.0 °F 67% 30.08 in 10.0 mi SW 4.6 mph - N/A   Overcast